Overview Statistics Trail Chart Weather Telemetry Raw packets
 

This is the latest recevied weather packets stored in our database for station/object W0AKY-13. If no packets are shown the sender has not sent any weather packets the latest 10 day(s).

<< 55 56 57 58 59 60 61 >>
Time Temp. Humidity Pressure Rain* Wind** Luminosity Snow
1788183292 25.56° C 79% 1014.4 hPa 0 mm - 42 W/m² -
1788182987 25.56° C 79% 1014.3 hPa 0 mm - 44 W/m² -
1788182683 25.56° C 78% 1014.3 hPa 0 mm - 44 W/m² -
1788182382 25.56° C 78% 1014.5 hPa 0 mm - 45 W/m² -
1788182077 25° C 78% 1014.5 hPa 0 mm - 41 W/m² -
1788181773 25° C 80% 1014.8 hPa 0 mm - 45 W/m² -
1788181468 25° C 82% 1014.6 hPa 0 mm - 45 W/m² -
1788181168 25° C 79% 1014 hPa 0 mm - 47 W/m² -
1788180867 25° C 78% 1014 hPa 0 mm - 40 W/m² -
1788180563 25° C 77% 1014.1 hPa 0 mm - 28 W/m² -
1788180259 24.44° C 79% 1014 hPa 0 mm - 20 W/m² -
1788179955 24.44° C 77% 1013.8 hPa 0 mm - 16 W/m² -
1788179653 24.44° C 78% 1013.8 hPa 0 mm - 17 W/m² -
1788179348 24.44° C 78% 1013.7 hPa 0 mm - 16 W/m² -
1788179044 25° C 78% 1013.7 hPa 0 mm - 13 W/m² -
1788178738 25° C 76% 1013.3 hPa 0 mm - 11 W/m² -
1788178435 25° C 77% 1013.6 hPa 0 mm - 9 W/m² -
1788178130 25° C 76% 1013.6 hPa 0 mm - 5 W/m² -
1788177847 25° C 76% 1013.3 hPa 0 mm - 3 W/m² -
1788177525 25° C 77% 1012.9 hPa 0 mm - 2 W/m² -
1788177222 25° C 77% 1012.9 hPa 0 mm - 1 W/m² -
1788176921 25° C 77% 1012.8 hPa 0 mm - 1 W/m² -
1788176620 25° C 77% 1012.8 hPa 0 mm - 0 W/m² -
1788176334 25° C 77% 1013 hPa 0 mm - 0 W/m² -
1788176016 25° C 76% 1012.9 hPa 0 mm - 0 W/m² -

* Rain latest hour (hover to see other rain measurements)
** Current wind speed in m/s (hover to see current wind gust speed)